SL-16 DEB, 22437

Orbit data source: Space-Track

SL-16 DEB, 22437 is space debris in LEO originally from a launch on Fri, 25 Dec 1992 UTC launched from the Tyuratam Missile And Space Complex (TTMTR). Debris objects in space refer to the collection of defunct objects orbiting the Earth. Examples of debris include non-operational satellites, rocket bodies, and fragments generated from explosions, collisions, or faulty payload assembly.

Loading next visibility...
Identifier
22437, 1992-093EE
Orbit
LEO
Country
Flag of CISCIS
Related business
Manufacturer
Unknown
Mission
Spacecraft
Bus & Motor
Unknown
Mass
Unknown
Launch date (UTC)
1992-12-25 (33 years ago)
Launch vehicle
Unknown
Launch site
Tyuratam Missile And Space Complex (TTMTR)
Object type
Payload
Rocket body
Debris
Shape & HBR
Unknown shape, 0.1 m
Radar Cross Section
Small (<0.1 m²)

Expand to show TLE details & history
Last TLE update: 1 day ago

TLE from 1 day ago
0 SL-16 DEB
1 22437U 92093EE  26036.46319665  .00004639  00000-0  10909-2 0  9991
2 22437  71.3304  60.1919 0032145  48.2362 312.1523 14.54555858729751
Epoch: 2026-02-05T11:07Z
TLE epoch observation values (Epoch: 2026-02-05T11:07:00.190Z)
Latitude
-0.00001°
Longitude
117.82604°
Altitude
698.019 km
Speed
7.515 km/s
True Right ascension
04h 00m 46s
True Declination
0° 00' 00"
Sunlit
Object was in daylight at epoch
Visualization orbit readout
Latitude
Unknown
Longitude
Unknown
Altitude
Unknown
Speed
Unknown
Apparent Right ascension
Unknown
Apparent Declination
Unknown
Sunlit
N/A
Visualization observer readout
Local Sidereal Time
15:53:16
Azimuth
Unknown
Elevation
Unknown
Doppler factor
Unknown
Orbital elements
Apogee altitude
731.441 km
Perigee altitude
685.88 km
Semi-major axis
7,086.798 km
Eccentricity
0.00321
Inclination
71.3304°
RAAN
60.1919°
Arg. of periapsis
48.2362°
True anomaly
311.87848°
Mean anomaly
312.1523°
Eccentric anomaly
312.01546°
Mean motion
3.63805 °/min
Orbital period
98.95 mins
BSTAR
0.0010909
Loading maneuver chart data...
Computing Atmospheric mass density...

Documentation

Showing up to 5 results
|